Date String (YYYY-MM-DD hh:mm:ss) UTC,Instrument flags,Ambient pressure (hPa),Sample flow (lpm),Bypass flow (lpm),Sample temperature (°C),Ambient temperature (°C),ASC tube jacket temperature (°C),LED temperature (°C),Box temperature (°C),Sample RH (%),Span deviation,Mass concentration (μg/m³),Mass concentration (μg/m³),Mass concentration (μg/m³)
DateTimeUTC,F1_M11,P_M11,Q1_M11,Q2_M11,T1_M11,T2_M11,T3_M11,T4_M11,T5_M11,U1_M11,ZSPAN_M11,X0_M11,X2_M11,X1_M11
2023-05-21 03:00:00,,0834.9,5.01,0.00,29.8,28.2,00.0,38.1,31.4,23.8,0003.4,0013.75,0009.39,0008.96
2023-05-21 03:01:00,,0835.1,5.00,0.00,29.8,28.2,00.0,38.1,31.4,23.7,0003.4,0013.84,0009.43,0008.97
2023-05-21 03:02:00,,0834.8,5.00,0.00,29.8,28.2,00.0,38.1,31.4,24.1,0003.6,0013.79,0009.43,0008.99
2023-05-21 03:03:00,,0835.0,5.00,0.00,29.8,28.2,00.0,38.1,31.4,24.2,0003.6,0013.82,0009.44,0009.01
2023-05-21 03:04:00,,0834.8,5.00,0.00,29.8,28.2,00.0,38.1,31.4,24.0,0003.6,0013.71,0009.42,0009.01
2023-05-21 03:05:00,,0834.8,5.00,0.00,29.8,28.2,00.0,38.1,31.4,23.8,0003.6,0014.42,0009.43,0009.03
2023-05-21 03:06:00,,0834.8,4.99,0.00,29.8,28.2,00.0,38.1,31.4,23.9,0003.6,0014.40,0009.42,0009.03
2023-05-21 03:07:00,,0835.2,4.99,0.00,29.8,28.2,00.0,38.1,31.4,23.9,0003.5,0014.33,0009.42,0009.03
2023-05-21 03:08:00,,0835.2,5.00,0.00,29.8,28.2,00.0,38.1,31.4,24.0,0003.5,0014.36,0009.44,0009.04
2023-05-21 03:09:00,,0835.3,5.00,0.00,29.8,28.2,00.0,38.1,31.4,24.0,0003.4,0014.38,0009.47,0009.04
2023-05-21 03:10:00,,0835.3,5.01,0.00,29.8,28.2,00.0,38.1,31.3,23.8,0003.4,0013.79,0009.49,0009.05
2023-05-21 03:11:00,,0835.4,5.00,0.00,29.8,28.1,00.0,38.1,31.3,23.7,0003.4,0013.79,0009.49,0009.05
2023-05-21 03:12:00,,0835.1,5.01,0.00,29.8,28.1,00.0,38.2,31.3,23.6,0003.4,0013.73,0009.45,0009.05
2023-05-21 03:13:00,,0835.1,5.00,0.00,29.8,28.1,00.0,38.2,31.4,23.8,0003.3,0014.01,0009.45,0009.07
2023-05-21 03:14:00,,0835.2,5.00,0.00,29.8,28.1,00.0,38.2,31.3,23.7,0003.3,0014.02,0009.43,0009.06
2023-05-21 03:15:00,,0834.8,5.00,0.00,29.8,28.1,00.0,38.2,31.3,23.8,0003.2,0014.08,0009.45,0009.05
2023-05-21 03:16:00,,0834.8,4.99,0.00,29.8,28.1,00.0,38.2,31.3,23.7,0003.1,0013.63,0009.45,0009.03
2023-05-21 03:17:00,,0834.9,4.99,0.00,29.8,28.1,00.0,38.2,31.3,23.7,0003.0,0013.42,0009.45,0009.02
2023-05-21 03:18:00,,0834.9,5.00,0.00,29.8,28.1,00.0,38.2,31.3,23.6,0003.0,0013.49,0009.46,0009.00
2023-05-21 03:19:00,,0834.9,5.00,0.00,29.8,28.1,00.0,38.2,31.3,23.5,0003.0,0013.58,0009.46,0008.99
2023-05-21 03:20:00,,0834.8,5.00,0.00,29.8,28.1,00.0,38.2,31.4,23.3,0002.9,0013.59,0009.42,0008.98
2023-05-21 03:21:00,,0834.9,5.00,0.00,29.8,28.1,00.0,38.2,31.3,23.2,0003.0,0013.42,0009.37,0008.97
2023-05-21 03:22:00,,0834.8,5.00,0.00,29.8,28.1,00.0,38.2,31.4,23.3,0003.0,0013.43,0009.38,0008.97
2023-05-21 03:23:00,,0834.8,5.01,0.00,29.8,28.1,00.0,38.2,31.4,23.3,0002.8,0013.47,0009.39,0008.96
2023-05-21 03:24:00,,0834.9,5.00,0.00,29.8,28.1,00.0,38.2,31.3,23.2,0002.8,0013.44,0009.37,0008.94
2023-05-21 03:25:00,,0834.9,5.00,0.00,29.8,28.1,00.0,38.1,31.3,23.0,0002.8,0013.60,0009.38,0008.96
2023-05-21 03:26:00,,0835.0,4.99,0.00,29.8,28.1,00.0,38.2,31.3,22.8,0002.8,0013.56,0009.33,0008.94
2023-05-21 03:27:00,,0835.0,5.00,0.00,29.8,28.1,00.0,38.2,31.3,22.9,0002.8,0013.60,0009.30,0008.93
2023-05-21 03:28:00,,0835.0,5.00,0.00,29.8,28.1,00.0,38.1,31.3,22.8,0002.9,0013.65,0009.29,0008.92
2023-05-21 03:29:00,,0835.0,5.01,0.00,29.7,28.1,00.0,38.1,31.3,22.9,0003.0,0013.75,0009.27,0008.91
2023-05-21 03:30:00,,0835.0,5.00,0.00,29.7,28.1,00.0,38.1,31.3,22.8,0003.1,0013.90,0009.25,0008.89
2023-05-21 03:31:00,,0835.0,5.00,0.00,29.7,28.1,00.0,38.1,31.3,22.6,0003.3,0013.97,0009.25,0008.87
2023-05-21 03:32:00,,0835.0,5.00,0.00,29.7,28.1,00.0,38.1,31.3,22.4,0003.3,0013.92,0009.21,0008.83
2023-05-21 03:33:00,,0835.0,5.00,0.00,29.7,28.1,00.0,38.1,31.3,22.5,0003.2,0013.99,0009.20,0008.79
2023-05-21 03:34:00,,0835.0,4.99,0.00,29.7,28.1,00.0,38.1,31.3,22.3,0003.2,0013.87,0009.14,0008.74
2023-05-21 03:35:00,,0835.1,5.00,0.00,29.7,28.1,00.0,38.1,31.3,22.2,0003.1,0013.68,0009.08,0008.70
2023-05-21 03:36:00,,0835.1,5.01,0.00,29.7,28.1,00.0,38.1,31.3,22.2,0002.9,0013.45,0009.03,0008.65
2023-05-21 03:37:00,,0835.1,5.01,0.00,29.7,28.1,00.0,38.1,31.3,22.4,0002.7,0013.43,0009.01,0008.61
2023-05-21 03:38:00,,0835.1,5.00,0.00,29.7,28.1,00.0,38.1,31.3,22.3,0002.9,0013.28,0009.00,0008.59
2023-05-21 03:39:00,,0835.2,5.01,0.00,29.7,28.1,00.0,38.1,31.3,22.5,0003.0,0013.21,0008.98,0008.56
2023-05-21 03:40:00,,0835.1,5.00,0.00,29.7,28.1,00.0,38.1,31.3,22.5,0002.9,0013.05,0008.96,0008.54
2023-05-21 03:41:00,,0835.1,4.99,0.00,29.7,28.1,00.0,38.1,31.3,22.4,0003.0,0012.75,0008.91,0008.52
2023-05-21 03:42:00,,0835.2,4.99,0.00,29.7,28.1,00.0,38.1,31.3,22.3,0003.1,0012.47,0008.88,0008.49
2023-05-21 03:43:00,,0835.2,5.00,0.00,29.7,28.1,00.0,38.1,31.3,22.4,0003.0,0012.67,0008.91,0008.49
2023-05-21 03:44:00,,0835.2,5.01,0.00,29.7,28.1,00.0,38.1,31.3,22.5,0003.1,0012.82,0008.91,0008.50
2023-05-21 03:45:00,,0835.2,5.01,0.00,29.7,28.1,00.0,38.1,31.3,22.3,0003.2,0012.86,0008.94,0008.52
2023-05-21 03:46:00,,0835.2,4.99,0.00,29.7,28.1,00.0,38.1,31.3,22.3,0003.3,0012.86,0008.97,0008.55
2023-05-21 03:47:00,,0835.2,4.99,0.00,29.7,28.1,00.0,38.1,31.3,22.3,0003.5,0012.69,0008.98,0008.55
2023-05-21 03:48:00,,0835.2,5.00,0.00,29.7,28.1,00.0,38.1,31.3,22.3,0003.5,0012.64,0009.00,0008.57
2023-05-21 03:49:00,,0835.2,5.00,0.00,29.7,28.1,00.0,38.1,31.3,22.3,0003.5,0012.62,0009.00,0008.59
2023-05-21 03:50:00,,0835.2,5.00,0.00,29.7,28.1,00.0,38.1,31.3,22.3,0003.4,0012.62,0009.03,0008.64
2023-05-21 03:51:00,,0835.2,5.00,0.00,29.7,28.1,00.0,38.1,31.3,22.2,0003.4,0012.98,0009.05,0008.66
2023-05-21 03:52:00,,0835.2,5.00,0.00,29.7,28.1,00.0,38.1,31.3,22.2,0003.4,0013.07,0009.11,0008.69
2023-05-21 03:53:00,,0835.3,5.00,0.00,29.8,28.1,00.0,38.1,31.3,22.1,0003.5,0013.14,0009.15,0008.73
2023-05-21 03:54:00,,0835.3,5.00,0.00,29.8,28.1,00.0,38.1,31.3,22.1,0003.4,0013.27,0009.17,0008.76
2023-05-21 03:55:00,,0835.2,4.99,0.00,29.7,28.1,00.0,38.1,31.3,22.5,0003.4,0013.17,0009.17,0008.76
2023-05-21 03:56:00,,0835.2,5.00,0.00,29.8,28.1,00.0,38.1,31.3,22.3,0003.3,0013.24,0009.21,0008.78
2023-05-21 03:57:00,,0835.2,5.00,0.00,29.8,28.1,00.0,38.1,31.3,22.0,0003.2,0013.26,0009.22,0008.78
2023-05-21 03:58:00,,0835.2,4.99,0.00,29.7,28.1,00.0,38.1,31.3,21.9,0003.3,0013.37,0009.28,0008.81
2023-05-21 03:59:00,,0835.2,4.99,0.00,29.8,28.1,00.0,38.1,31.3,22.0,0003.3,0013.45,0009.31,0008.83
